When you browse on this site, cookies collect data to enhance your experience and personalize the content and advertising you see.
Visit our Privacy Policy to learn more. By continuing to use the site, you agree to this use of cookies and data.
  • In Österreich
  • Länderverzeichnis
  • Für 7 Tage
  • Wassertemperatur
  • Wetterkarte
  • News
  • Widgets
  • user-avatar
    Anmelden

    Stündliche Wetter Cherebasovo

    Heute, 18 September, Mittwoch

    Zeit Temperatur Niederschläge Wind Luftdruck Luftfeuchtigkeit
    00:00 +8°C° 0.9 mm 4 m/S 739 mmHg 85%
    01:00 +7°C° 0.9 mm 4 m/S 739 mmHg 88%
    02:00 +7°C° 0 mm 4 m/S 739 mmHg 92%
    03:00 +6°C° 1.5 mm 5 m/S 739 mmHg 91%
    04:00 +5°C° 1.5 mm 6 m/S 739 mmHg 90%
    05:00 +5°C° 1.5 mm 6 m/S 739 mmHg 90%
    06:00 +5°C° 0.2 mm 6 m/S 739 mmHg 89%
    07:00 +5°C° 0.2 mm 7 m/S 739 mmHg 88%
    08:00 +5°C° 0.2 mm 7 m/S 740 mmHg 87%
    09:00 +5°C° 0.1 mm 6 m/S 740 mmHg 84%
    10:00 +7°C° 0.1 mm 6 m/S 741 mmHg 81%
    11:00 +8°C° 0.1 mm 6 m/S 741 mmHg 78%
    12:00 +8°C° 0.1 mm 6 m/S 741 mmHg 77%
    13:00 +8°C° 0.1 mm 6 m/S 742 mmHg 75%
    14:00 +9°C° 0.1 mm 7 m/S 742 mmHg 74%
    15:00 +9°C° 0.1 mm 6 m/S 743 mmHg 73%
    16:00 +9°C° 0.1 mm 5 m/S 744 mmHg 71%
    17:00 +10°C° 0.1 mm 5 m/S 744 mmHg 70%
    18:00 +9°C° 0 mm 5 m/S 745 mmHg 74%
    19:00 +8°C° 0 mm 5 m/S 745 mmHg 78%
    20:00 +7°C° 0 mm 5 m/S 746 mmHg 82%
    21:00 +7°C° 0.1 mm 5 m/S 746 mmHg 83%
    22:00 +7°C° 0.1 mm 5 m/S 747 mmHg 83%
    23:00 +7°C° 0.1 mm 5 m/S 747 mmHg 84%

    Morgen, 19 September, Donnerstag

    Zeit Temperatur Niederschläge Wind Luftdruck Luftfeuchtigkeit
    00:00 +7°C° 0 mm 5 m/S 747 mmHg 86%
    01:00 +7°C° 0 mm 5 m/S 748 mmHg 87%
    02:00 +7°C° 0 mm 5 m/S 748 mmHg 89%
    03:00 +7°C° 0 mm 5 m/S 748 mmHg 88%
    04:00 +7°C° 0 mm 5 m/S 748 mmHg 88%
    05:00 +7°C° 0 mm 5 m/S 749 mmHg 87%
    06:00 +7°C° 0 mm 5 m/S 749 mmHg 86%
    07:00 +7°C° 0 mm 5 m/S 749 mmHg 84%
    08:00 +7°C° 0 mm 5 m/S 750 mmHg 82%
    09:00 +8°C° 0 mm 5 m/S 750 mmHg 81%
    10:00 +8°C° 0 mm 5 m/S 750 mmHg 79%
    11:00 +8°C° 0 mm 4 m/S 751 mmHg 78%
    12:00 +10°C° 0 mm 4 m/S 751 mmHg 74%
    13:00 +11°C° 0 mm 4 m/S 751 mmHg 71%
    14:00 +12°C° 0 mm 4 m/S 751 mmHg 67%
    15:00 +12°C° 0 mm 3 m/S 751 mmHg 66%
    16:00 +12°C° 0 mm 3 m/S 751 mmHg 66%
    17:00 +13°C° 0 mm 2 m/S 751 mmHg 65%
    18:00 +10°C° 0.1 mm 2 m/S 751 mmHg 72%
    19:00 +9°C° 0.1 mm 2 m/S 751 mmHg 79%
    20:00 +8°C° 0.1 mm 2 m/S 751 mmHg 86%
    21:00 +7°C° 0 mm 2 m/S 751 mmHg 88%
    22:00 +7°C° 0 mm 3 m/S 751 mmHg 90%
    23:00 +7°C° 0 mm 3 m/S 751 mmHg 92%

    übermorgen, 20 September, Freitag

    Zeit Temperatur Niederschläge Wind Luftdruck Luftfeuchtigkeit
    00:00 +7°C° 0 mm 3 m/S 751 mmHg 92%
    01:00 +5°C° 0 mm 3 m/S 751 mmHg 93%
    02:00 +5°C° 0 mm 3 m/S 751 mmHg 94%
    03:00 +5°C° 0.1 mm 4 m/S 751 mmHg 93%
    04:00 +5°C° 0.1 mm 4 m/S 751 mmHg 92%
    05:00 +6°C° 0.1 mm 4 m/S 751 mmHg 91%
    06:00 +6°C° 0 mm 4 m/S 752 mmHg 90%
    07:00 +6°C° 0 mm 5 m/S 752 mmHg 88%
    08:00 +6°C° 0 mm 5 m/S 752 mmHg 87%
    09:00 +6°C° 0 mm 5 m/S 752 mmHg 80%
    10:00 +7°C° 0 mm 6 m/S 753 mmHg 74%
    11:00 +8°C° 0 mm 6 m/S 753 mmHg 68%
    12:00 +9°C° 0.3 mm 6 m/S 753 mmHg 63%
    13:00 +9°C° 0.3 mm 6 m/S 753 mmHg 58%
    14:00 +10°C° 0.3 mm 6 m/S 753 mmHg 54%
    15:00 +10°C° 0.1 mm 6 m/S 753 mmHg 56%
    16:00 +9°C° 0.1 mm 5 m/S 753 mmHg 58%
    17:00 +10°C° 0.1 mm 4 m/S 753 mmHg 61%
    18:00 +7°C° 0 mm 4 m/S 754 mmHg 66%
    19:00 +7°C° 0 mm 3 m/S 754 mmHg 72%
    20:00 +5°C° 0 mm 3 m/S 754 mmHg 78%
    21:00 +4°C° 0 mm 3 m/S 755 mmHg 80%
    22:00 +4°C° 0 mm 2 m/S 755 mmHg 82%
    23:00 +4°C° 0 mm 2 m/S 755 mmHg 84%

    21 September, Samstag

    Zeit Temperatur Niederschläge Wind Luftdruck Luftfeuchtigkeit
    00:00 +4°C° 0 mm 2 m/S 755 mmHg 85%
    01:00 +3°C° 0 mm 2 m/S 756 mmHg 86%
    02:00 +3°C° 0 mm 2 m/S 756 mmHg 87%
    03:00 +3°C° 0 mm 2 m/S 756 mmHg 86%
    04:00 +3°C° 0 mm 2 m/S 756 mmHg 86%
    05:00 +3°C° 0 mm 2 m/S 755 mmHg 85%
    06:00 +4°C° 0 mm 2 m/S 755 mmHg 80%
    07:00 +5°C° 0 mm 2 m/S 755 mmHg 75%
    08:00 +6°C° 0 mm 2 m/S 755 mmHg 69%
    09:00 +8°C° 0 mm 3 m/S 755 mmHg 68%
    10:00 +9°C° 0 mm 3 m/S 755 mmHg 66%
    11:00 +11°C° 0 mm 4 m/S 755 mmHg 64%
    12:00 +10°C° 0.1 mm 4 m/S 755 mmHg 69%
    13:00 +10°C° 0.1 mm 4 m/S 754 mmHg 73%
    14:00 +9°C° 0.1 mm 5 m/S 754 mmHg 78%
    15:00 +10°C° 0 mm 5 m/S 753 mmHg 77%
    16:00 +12°C° 0 mm 4 m/S 753 mmHg 76%
    17:00 +13°C° 0 mm 4 m/S 753 mmHg 74%
    18:00 +13°C° 0 mm 4 m/S 753 mmHg 75%
    19:00 +13°C° 0 mm 4 m/S 753 mmHg 76%
    20:00 +13°C° 0 mm 4 m/S 753 mmHg 77%
    21:00 +12°C° 0 mm 4 m/S 753 mmHg 80%
    22:00 +12°C° 0 mm 5 m/S 753 mmHg 83%
    23:00 +10°C° 0 mm 5 m/S 752 mmHg 86%

    22 September, Sonntag

    Zeit Temperatur Niederschläge Wind Luftdruck Luftfeuchtigkeit
    00:00 +10°C° 0 mm 5 m/S 752 mmHg 87%
    01:00 +9°C° 0 mm 5 m/S 752 mmHg 88%
    02:00 +9°C° 0 mm 5 m/S 752 mmHg 89%
    03:00 +9°C° 0 mm 5 m/S 752 mmHg 89%
    04:00 +8°C° 0 mm 5 m/S 752 mmHg 90%
    05:00 +8°C° 0 mm 5 m/S 752 mmHg 91%
    06:00 +9°C° 0 mm 5 m/S 752 mmHg 89%
    07:00 +9°C° 0 mm 5 m/S 752 mmHg 86%
    08:00 +10°C° 0 mm 5 m/S 752 mmHg 84%
    09:00 +12°C° 0 mm 4 m/S 752 mmHg 81%
    10:00 +13°C° 0 mm 4 m/S 752 mmHg 77%
    11:00 +14°C° 0 mm 4 m/S 752 mmHg 73%
    12:00 +17°C° 0 mm 3 m/S 752 mmHg 69%
    13:00 +18°C° 0 mm 3 m/S 752 mmHg 64%
    14:00 +19°C° 0 mm 3 m/S 751 mmHg 59%
    15:00 +18°C° 0 mm 2 m/S 751 mmHg 62%
    16:00 +18°C° 0 mm 2 m/S 751 mmHg 65%
    17:00 +19°C° 0 mm 1 m/S 751 mmHg 68%
    18:00 +16°C° 0 mm 1 m/S 751 mmHg 73%
    19:00 +14°C° 0 mm 2 m/S 751 mmHg 78%
    20:00 +13°C° 0 mm 2 m/S 751 mmHg 83%
    21:00 +12°C° 0 mm 2 m/S 751 mmHg 82%
    22:00 +11°C° 0 mm 3 m/S 752 mmHg 80%
    23:00 +10°C° 0 mm 3 m/S 752 mmHg 79%

    23 September, Montag

    Zeit Temperatur Niederschläge Wind Luftdruck Luftfeuchtigkeit
    00:00 +10°C° 0 mm 3 m/S 752 mmHg 75%
    01:00 +10°C° 0 mm 3 m/S 752 mmHg 71%
    02:00 +10°C° 0 mm 3 m/S 752 mmHg 67%
    03:00 +9°C° 0 mm 3 m/S 751 mmHg 67%
    04:00 +9°C° 0 mm 3 m/S 751 mmHg 68%
    05:00 +8°C° 0 mm 3 m/S 751 mmHg 68%
    06:00 +7°C° 0 mm 4 m/S 750 mmHg 66%
    07:00 +8°C° 0 mm 4 m/S 750 mmHg 63%
    08:00 +8°C° 0 mm 4 m/S 750 mmHg 61%
    09:00 +11°C° 0 mm 4 m/S 750 mmHg 59%
    10:00 +12°C° 0 mm 4 m/S 750 mmHg 57%
    11:00 +13°C° 0 mm 4 m/S 750 mmHg 55%
    12:00 +14°C° 0 mm 4 m/S 749 mmHg 55%
    13:00 +14°C° 0 mm 4 m/S 749 mmHg 55%
    14:00 +15°C° 0 mm 4 m/S 748 mmHg 55%
    15:00 +14°C° 0 mm 4 m/S 748 mmHg 56%
    16:00 +14°C° 0 mm 4 m/S 748 mmHg 58%
    17:00 +14°C° 0 mm 3 m/S 747 mmHg 59%
    18:00 +12°C° 0 mm 3 m/S 747 mmHg 61%
    19:00 +11°C° 0 mm 3 m/S 747 mmHg 63%
    20:00 +9°C° 0 mm 3 m/S 747 mmHg 65%
    21:00 +9°C° 0 mm 3 m/S 747 mmHg 65%
    22:00 +8°C° 0 mm 3 m/S 747 mmHg 65%
    23:00 +8°C° 0 mm 3 m/S 747 mmHg 64%
    Mehr zeigen